sat.trackr.live / text

‹ back to catalog

ALSAT-2B

NORAD 41786 · 2016-059D

PAYLOAD ACTIVE UNKNOWN

§ Identity

Operator
Country
ALG
Launch date
2016-09-26
Launch site
SRILR
Launch vehicle
Mass (kg)
RCS (m²)
0.78

External: N2YO · Heavens-Above · Gunter

§ Orbital elements

Epoch: 2026-09-20T04:11:03.161760Z

Period
97.89 min
Inclination
97.9802°
Eccentricity
0.0000683
Mean motion
14.70968852 rev/d
Perigee alt
657.5 km
Apogee alt
658.5 km
Semi-major
7,036.1 km
B*
6.3857e-5
RAAN
323.5772°
Arg perigee
80.1191°
Mean anomaly
280.0093°
Rev number
53,473

§ Raw data

ALSAT-2B1 41786U 16059D   26263.17434215  .00000343  00000+0  63857-4 0  99952 41786  97.9802 323.5772 0000683  80.1191 280.0093 14.70968852534733

JSON: /api/v1/satellites/41786 · /tle

For live sub-satellite position, see the globe view (requires WebGL).

§ Visibility from observer

Set your observer location to see the next 7 days of passes ≥ 10°. The values pass through the URL so the page stays shareable.

No JS? Fill the form by hand. The geolocation button needs JavaScript.

§ Radio — SatNOGS DB

ModeDescriptionDownlinkUplink
FM S-band telemetry 2.267 GHz

1 transmitter · refreshed weekly from db.satnogs.org